This is the latest recevied weather packets stored in our database for station/object SQ4IXR-4. If no packets are shown the sender has not sent any weather packets the latest 10 day(s).
| Time | Temp. | Humidity | Pressure | Rain* | Wind** | Luminosity | Snow |
|---|---|---|---|---|---|---|---|
| 1777944754 | 13.89° C | 96% | 1014.8 hPa | - | - | - | - |
| 1777943931 | 13.89° C | 95% | 1014.9 hPa | - | - | - | - |
| 1777943108 | 14.44° C | 91% | 1014.9 hPa | - | - | - | - |
| 1777942285 | 14.44° C | 89% | 1014.9 hPa | - | - | - | - |
| 1777941463 | 14.44° C | 88% | 1014.7 hPa | - | - | - | - |
| 1777940640 | 15° C | 88% | 1014.7 hPa | - | - | - | - |
| 1777939817 | 15° C | 86% | 1014.7 hPa | - | - | - | - |
| 1777938995 | 15° C | 85% | 1014.7 hPa | - | - | - | - |
| 1777938171 | 15° C | 84% | 1014.8 hPa | - | - | - | - |
| 1777937347 | 15.56° C | 84% | 1014.7 hPa | - | - | - | - |
| 1777936523 | 15.56° C | 83% | 1014.7 hPa | - | - | - | - |
| 1777935701 | 15.56° C | 81% | 1014.9 hPa | - | - | - | - |
| 1777934878 | 15.56° C | 80% | 1014.8 hPa | - | - | - | - |
| 1777934055 | 15.56° C | 80% | 1014.9 hPa | - | - | - | - |
| 1777933232 | 16.11° C | 77% | 1014.9 hPa | - | - | - | - |
| 1777932409 | 16.67° C | 72% | 1014.8 hPa | - | - | - | - |
| 1777931586 | 16.67° C | 67% | 1014.8 hPa | - | - | - | - |
| 1777930763 | 17.22° C | 57% | 1014.6 hPa | - | - | - | - |
| 1777929938 | 16.67° C | 50% | 1014.5 hPa | - | - | - | - |
| 1777929115 | 16.67° C | 48% | 1014.3 hPa | - | - | - | - |
| 1777928291 | 16.67° C | 51% | 1014.2 hPa | - | - | - | - |
| 1777927467 | 16.67° C | 50% | 1013.9 hPa | - | - | - | - |
| 1777926646 | 16.67° C | 50% | 1013.8 hPa | - | - | - | - |
| 1777925820 | 17.22° C | 47% | 1013.8 hPa | - | - | - | - |
| 1777924998 | 17.78° C | 45% | 1013.7 hPa | - | - | - | - |
* Rain since midnight (hover to see other rain measurements)
** Current wind speed in m/s (hover to see current wind gust speed)